Date,TemperatureHighF,TemperatureAvgF,TemperatureLowF,DewpointHighF,DewpointAvgF,DewpointLowF,HumidityHigh,HumidityAvg,HumidityLow,PressureMaxIn,PressureMinIn,WindSpeedMaxMPH,WindSpeedAvgMPH,GustSpeedMaxMPH,PrecipitationSumIn
2013-1-1,44.6,40.8,34.9,39.6,37.1,30.7,91,87,80,29.88,29.28,22,6,22,0.20
2013-1-2,52.0,48.7,39.9,49.7,46.6,37.2,95,92,89,30.07,29.88,16,4,16,0.18
2013-1-3,51.6,50.4,49.1,49.7,47.8,46.8,94,91,87,30.39,30.07,19,4,19,0.04
2013-1-4,49.5,47.5,46.4,47.2,44.6,43.2,93,90,84,30.43,30.38,11,4,11,0.00
2013-1-5,50.2,48.5,44.2,47.1,45.1,42.1,92,88,84,30.38,30.23,16,6,16,0.08
2013-1-6,48.6,45.0,38.8,45.8,42.7,37.5,96,92,82,30.37,30.13,12,3,12,0.09
2013-1-7,49.6,48.5,46.9,48.3,46.5,44.3,95,93,90,30.14,29.94,11,2,11,0.37
2013-1-8,51.3,45.6,40.8,48.7,42.6,38.3,93,89,85,30.12,29.91,12,2,12,0.15
2013-1-9,46.9,39.9,32.4,41.7,36.8,29.8,94,89,75,30.11,29.99,10,1,10,0.00
2013-1-10,48.4,33.3,27.1,43.2,30.1,23.8,95,88,71,29.99,29.84,3,0,3,0.01
2013-1-11,43.0,36.9,33.1,37.7,34.2,30.8,95,90,81,29.94,29.84,10,2,10,0.02
2013-1-12,41.4,36.3,33.6,34.5,31.6,28.9,87,83,74,30.03,29.81,10,1,10,0.01
2013-1-13,35.2,33.8,32.4,32.6,30.8,28.2,90,89,81,30.03,29.92,10,3,10,0.07
2013-1-14,39.4,34.6,30.6,36.6,30.5,26.6,95,85,78,29.91,29.68,13,2,13,0.12
2013-1-15,41.9,31.8,25.7,32.8,27.4,21.5,90,84,64,29.81,29.74,6,0,6,0.01
2013-1-16,32.5,31.1,26.1,25.8,24.1,21.6,83,74,67,29.86,29.71,13,3,13,0.00
2013-1-17,40.6,33.5,31.3,28.0,24.7,21.1,79,70,55,29.87,29.61,24,4,24,0.00
2013-1-18,34.2,31.1,29.3,27.2,22.2,19.5,77,69,64,29.61,29.35,25,8,25,0.00
2013-1-19,37.2,33.4,30.6,27.6,25.6,22.0,77,73,66,29.60,29.38,14,2,14,0.00
2013-1-20,34.0,32.7,31.6,26.2,24.3,23.3,77,71,65,29.58,29.40,8,2,8,0.00
2013-1-21,34.5,32.8,30.6,30.2,28.7,24.8,87,85,73,29.39,29.32,4,0,4,0.01
2013-1-22,40.6,29.6,24.1,31.6,24.0,19.7,89,80,66,29.72,29.35,6,0,6,0.04
2013-1-23,36.5,32.8,25.7,29.0,27.6,21.3,89,81,72,29.85,29.71,9,1,9,0.01
2013-1-24,34.7,32.7,27.9,29.4,27.7,23.1,87,81,75,29.95,29.84,17,4,17,0.00
2013-1-25,34.3,32.8,30.9,31.2,30.0,26.6,91,88,79,29.88,29.31,23,10,23,0.15
2013-1-26,47.7,39.9,34.0,46.0,36.5,31.1,95,88,74,29.53,28.91,17,6,17,0.31
2013-1-27,48.7,39.3,35.8,46.5,34.9,30.8,94,84,77,29.21,28.78,24,8,24,0.30
2013-1-28,46.4,42.1,36.3,42.2,37.7,31.2,91,84,79,29.32,28.89,30,10,30,0.21
2013-1-29,51.8,45.9,42.4,49.7,41.3,35.4,94,84,72,29.32,28.96,27,8,27,0.11
2013-1-30,43.9,41.7,39.6,38.9,36.9,34.7,89,83,74,29.64,29.14,21,9,21,0.14
2013-1-31,46.8,41.5,34.3,38.7,36.1,30.9,94,81,68,29.63,29.21,35,10,35,0.50
2013-2-1,42.4,37.2,27.7,37.8,32.6,22.9,90,83,75,29.76,29.33,13,2,13,0.05
2013-2-2,44.2,32.3,24.4,33.0,26.0,20.3,88,78,51,30.13,29.77,12,1,12,0.01
2013-2-3,49.1,45.3,34.5,46.1,42.0,29.2,95,88,73,29.99,29.55,22,9,22,0.22
2013-2-4,48.0,36.9,32.5,45.7,32.4,28.3,93,84,70,29.59,29.33,30,12,30,0.33
2013-2-5,42.8,36.9,31.1,38.6,33.2,28.1,94,86,78,29.51,29.08,21,8,21,0.32
2013-2-6,43.7,37.0,30.6,32.1,27.0,24.4,85,68,51,30.08,29.54,27,6,27,0.00
2013-2-7,39.9,36.6,30.4,34.9,32.1,26.1,88,83,76,30.07,29.92,9,1,9,0.05
2013-2-8,44.8,39.6,34.9,36.3,34.9,32.0,95,83,69,30.11,30.00,12,3,12,0.07
2013-2-9,41.7,38.9,37.0,39.8,36.8,33.7,95,92,87,30.03,29.69,10,2,10,0.12
2013-2-10,37.4,36.0,34.7,35.0,31.9,31.3,91,85,83,29.69,29.25,11,3,11,0.05
2013-2-11,45.3,36.4,32.4,33.0,27.5,24.0,82,70,55,29.82,29.34,10,2,10,0.00
2013-2-12,39.2,34.6,30.9,29.2,26.5,25.0,81,72,62,29.98,29.82,8,2,8,0.00
2013-2-13,44.8,34.9,30.7,43.4,32.6,25.3,96,91,75,29.96,29.50,23,11,23,0.20
2013-2-14,47.7,43.6,41.7,42.4,39.4,38.0,94,85,76,29.81,29.52,17,6,17,0.01
2013-2-15,50.0,41.2,35.2,41.2,36.7,31.3,92,84,70,30.04,29.82,11,2,11,0.01
2013-2-16,45.7,42.0,35.4,41.4,39.4,32.1,95,91,84,30.04,30.00,14,5,14,0.00
2013-2-17,48.6,41.4,36.0,40.5,35.3,28.3,93,79,64,30.02,29.96,14,4,14,0.00
2013-2-18,48.0,38.4,29.1,34.9,30.5,25.2,86,74,59,30.04,29.97,12,3,12,0.00
2013-2-19,59.2,39.1,25.2,40.9,28.4,21.0,88,69,35,30.05,29.99,8,1,8,0.00
2013-2-20,41.4,36.7,29.5,35.3,30.7,22.9,88,79,71,30.18,30.04,14,3,14,0.00
2013-2-21,42.8,34.3,28.0,26.7,22.9,20.0,77,63,52,30.20,30.15,15,4,15,0.00
2013-2-22,36.0,33.4,30.6,21.5,20.1,17.5,64,58,52,30.21,30.15,10,2,10,0.00
2013-2-23,45.9,34.4,25.7,28.7,22.9,17.8,80,63,43,30.29,30.16,8,1,8,0.00
2013-2-24,47.7,34.5,23.7,32.4,26.8,18.5,85,74,51,30.39,30.28,8,1,8,0.00
2013-2-25,52.5,37.7,24.3,35.8,28.8,20.2,89,72,47,30.52,30.38,6,1,6,0.00
2013-2-26,58.8,40.6,23.2,33.3,27.7,18.4,86,64,27,30.60,30.49,8,1,8,0.00
2013-2-27,51.8,35.5,24.1,36.2,28.5,19.7,87,76,52,30.59,30.51,8,1,8,0.00
2013-2-28,61.3,45.6,32.0,42.0,38.1,28.3,95,69,46,30.51,30.41,6,1,6,0.00
2013-3-1,58.8,40.8,27.9,35.8,29.8,22.8,88,68,36,30.45,30.38,7,1,7,0.00
2013-3-2,45.9,41.9,26.2,42.7,38.4,21.5,91,87,81,30.38,30.19,7,2,7,0.00
2013-3-3,50.7,40.4,33.4,41.9,34.5,28.5,95,80,54,30.19,30.01,8,1,8,0.76
2013-3-4,47.5,39.9,34.5,35.4,32.1,29.1,86,74,60,30.00,29.67,10,2,10,0.00
2013-3-5,57.2,41.4,26.4,36.9,31.0,22.3,90,69,43,29.67,29.55,4,1,4,0.00
2013-3-6,49.1,40.9,32.4,38.1,34.5,27.8,90,79,64,29.58,29.51,5,2,5,0.06
2013-3-7,52.3,44.8,41.2,44.8,38.3,34.4,88,78,69,29.50,29.36,8,2,8,0.01
2013-3-8,42.8,40.8,38.7,37.5,36.2,34.9,89,84,79,29.57,29.37,12,2,12,0.02
2013-3-9,40.8,38.5,34.0,35.6,33.9,24.7,89,84,68,29.78,29.57,8,2,8,0.04
2013-3-10,45.0,34.6,24.6,30.0,22.4,16.4,74,61,43,29.99,29.77,11,3,11,0.00
2013-3-11,39.6,28.5,18.7,25.6,18.0,10.3,78,65,45,30.06,29.98,11,2,11,0.01
2013-3-12,44.6,32.8,15.3,32.0,23.4,8.5,84,69,45,30.06,29.83,13,3,13,0.00
2013-3-13,50.2,35.9,23.9,28.8,21.8,13.2,86,60,27,29.93,29.80,11,2,11,0.00
2013-3-14,43.5,38.0,23.7,37.6,33.7,17.9,89,84,77,29.86,29.56,10,3,10,0.01
2013-3-15,53.6,41.8,33.3,38.6,34.9,29.5,90,78,52,29.55,29.31,10,3,10,0.13
2013-3-16,37.2,34.6,33.1,33.1,31.2,30.0,89,87,84,29.22,29.16,5,1,5,0.18
2013-3-17,38.8,34.8,32.5,35.4,31.6,29.4,90,88,85,29.16,29.06,8,1,8,0.07
2013-3-18,41.9,35.8,32.5,36.9,30.4,26.0,90,81,73,29.42,29.15,12,2,12,0.09
2013-3-19,40.1,35.9,32.7,36.0,30.5,26.4,86,81,72,29.52,29.38,13,4,13,0.07
2013-3-20,44.1,36.6,32.0,34.4,28.7,24.0,84,73,65,29.92,29.53,12,3,12,0.00
2013-3-21,44.8,33.9,29.7,26.6,23.2,21.5,75,65,45,29.94,29.79,21,4,21,0.01
2013-3-22,34.9,32.5,30.7,31.1,27.2,22.0,90,81,63,30.00,29.70,25,7,25,0.02
2013-3-23,34.2,32.5,31.5,27.3,24.6,22.1,82,73,68,30.21,30.00,20,6,20,0.01
2013-3-24,41.7,34.2,30.0,24.2,21.5,19.8,69,60,46,30.31,30.18,14,5,14,0.00
2013-3-25,42.6,34.4,30.2,26.2,21.6,17.7,68,59,49,30.33,30.29,12,4,12,0.00
2013-3-26,44.4,34.1,28.4,27.6,22.6,19.9,75,63,44,30.31,30.22,8,2,8,0.00
2013-3-27,47.7,35.9,25.0,28.5,23.7,15.6,76,61,46,30.23,30.15,59,2,59,0.00
2013-3-28,46.9,36.1,25.0,25.7,21.7,18.8,81,58,38,30.17,30.13,14,3,14,0.00
2013-3-29,48.2,34.7,25.7,25.5,21.2,17.3,76,59,36,30.11,29.99,8,2,8,0.00
2013-3-30,43.2,36.7,25.9,25.0,21.4,18.1,74,55,39,30.07,30.07,3,2,3,0.00
2013-3-31,45.5,39.6,28.9,22.2,20.1,17.7,70,46,34,30.09,30.04,9,6,9,0.00
2013-4-1,52.2,42.8,30.6,23.8,21.0,18.2,64,43,31,30.15,30.07,9,3,9,0.00
2013-4-2,47.7,37.5,27.5,29.8,22.9,16.2,69,56,38,30.33,30.16,8,2,8,0.00
2013-4-3,57.2,41.9,22.1,26.5,20.5,16.2,82,47,23,30.38,30.32,10,2,10,0.00
2013-4-4,52.2,35.0,28.8,23.1,21.7,14.1,73,30,23,30.37,30.32,5,0,5,0.01
2013-4-5,53.6,40.5,29.1,30.1,24.9,20.2,82,55,31,30.38,30.30,11,2,11,0.01
2013-4-6,55.0,39.6,23.0,31.3,23.8,16.6,77,56,31,30.38,29.86,11,2,11,0.00
2013-4-7,53.8,42.0,29.8,34.4,28.9,24.1,85,61,33,29.85,29.58,11,3,11,0.00
2013-4-8,48.2,40.1,32.2,29.8,26.6,21.7,76,59,46,29.58,29.34,13,4,13,0.00
2013-4-9,55.2,39.5,27.5,28.7,23.7,18.4,76,55,29,29.34,29.26,14,2,14,0.00
2013-4-10,56.1,44.3,30.2,32.1,27.7,19.9,77,54,32,29.70,28.97,11,3,11,0.00
2013-4-11,48.7,41.7,36.9,37.6,34.0,30.7,86,74,55,29.56,29.39,14,3,14,0.00
2013-4-12,53.1,43.3,37.9,40.2,37.5,33.9,89,80,58,29.66,29.35,10,2,10,0.02
2013-4-13,54.3,46.7,39.6,48.0,40.0,36.1,94,79,52,29.75,29.46,22,6,22,0.04
2013-4-14,59.5,52.5,47.7,48.4,45.9,43.4,94,79,63,29.52,29.42,27,11,27,0.35
2013-4-15,61.7,50.8,46.6,47.4,44.0,41.3,89,78,54,29.78,29.52,19,7,19,0.13
2013-4-16,55.9,48.9,40.8,43.6,38.8,34.0,87,69,46,29.90,29.42,29,10,29,0.07
2013-4-17,51.3,46.1,36.3,48.4,42.7,31.4,94,88,81,29.89,29.17,24,9,24,0.40
2013-4-18,52.0,46.3,43.0,43.8,40.3,37.8,93,80,66,29.95,29.16,24,10,24,0.25
2013-4-19,60.3,47.2,37.2,38.3,34.2,28.7,87,63,34,30.45,29.97,11,4,11,0.00
2013-4-20,59.4,49.5,38.8,41.2,38.1,34.1,89,66,46,30.45,30.19,19,6,19,0.00
2013-4-21,59.4,46.0,41.5,42.0,39.0,35.2,88,77,44,30.17,29.90,16,5,16,0.07
2013-4-22,51.4,46.1,40.6,46.7,40.5,36.2,90,81,65,29.90,29.71,24,8,24,0.02
2013-4-23,56.5,48.7,44.8,43.0,40.0,37.9,85,72,57,30.83,29.81,23,7,23,0.00
2013-4-24,53.6,47.3,40.3,50.6,39.3,31.8,94,75,48,30.25,29.94,17,6,17,0.19
2013-4-25,53.8,45.0,38.8,40.3,37.1,32.7,89,75,48,30.25,30.08,18,4,18,0.11
2013-4-26,52.2,43.1,35.2,38.4,34.8,30.6,88,73,53,30.09,29.90,22,6,22,0.07
2013-4-27,54.7,45.6,33.6,34.8,30.4,23.6,87,57,34,30.15,30.01,14,4,14,0.00
2013-4-28,50.9,43.7,32.0,41.9,37.7,31.4,92,79,60,30.03,29.70,24,9,24,0.07
2013-4-29,51.8,45.1,39.9,39.6,36.4,32.3,87,72,49,30.14,29.69,22,10,22,0.11
2013-4-30,58.5,49.8,34.5,36.2,30.5,23.0,89,51,26,30.33,30.16,14,4,14,0.00
2013-5-1,55.9,47.7,36.0,42.0,36.6,29.8,86,67,41,30.30,30.16,21,6,21,0.04
2013-5-2,56.7,47.9,31.8,42.8,37.7,28.0,89,69,49,30.30,30.07,14,5,14,0.00
2013-5-3,51.1,47.3,41.0,46.9,44.0,38.3,92,88,84,30.06,29.75,14,6,14,0.57
2013-5-4,54.7,47.6,35.1,41.9,37.9,31.3,93,70,50,29.94,29.78,18,6,18,0.00
2013-5-5,64.6,52.8,46.0,51.7,46.8,41.0,87,80,62,30.08,29.94,14,5,14,0.00
2013-5-6,61.2,51.5,45.1,48.5,46.0,41.2,89,82,62,30.08,30.03,11,4,11,0.01
2013-5-7,76.1,62.6,39.4,49.2,45.5,37.3,94,57,31,30.07,29.84,14,4,14,0.00
2013-5-8,60.1,52.3,45.7,54.6,48.9,40.9,99,89,55,29.84,29.46,17,6,17,0.12
2013-5-9,51.3,46.6,44.2,49.1,44.6,39.8,98,93,78,29.56,29.29,16,6,16,0.33
2013-5-10,57.9,48.0,42.1,49.5,44.5,39.5,98,88,66,29.69,29.41,15,4,15,0.12
2013-5-11,52.5,45.6,41.4,45.5,42.7,38.8,98,90,65,29.81,29.56,29,9,29,0.34
2013-5-12,51.3,46.4,41.2,49.9,44.5,37.7,98,93,80,29.84,29.67,15,6,15,0.27
2013-5-13,51.8,44.8,38.3,41.7,38.3,35.1,96,78,60,29.70,29.53,21,9,21,0.11
2013-5-14,62.2,46.9,35.2,44.6,38.3,30.8,95,74,34,30.19,29.43,17,5,17,0.11
2013-5-15,54.7,46.4,34.3,42.0,38.5,31.6,99,75,54,29.46,29.36,21,7,21,0.00
2013-5-16,64.2,52.5,39.7,40.5,36.6,29.1,94,57,29,29.69,29.45,10,3,10,0.00
2013-5-17,65.5,49.0,36.0,43.9,38.9,33.6,98,71,31,29.89,29.68,11,2,11,0.00
2013-5-18,52.5,49.0,45.5,52.0,47.8,39.1,99,96,65,29.88,27.48,12,3,12,0.74
2013-5-19,56.7,53.4,48.6,54.2,51.6,-3.7,99,95,10,30.03,29.80,86,3,86,0.00
2013-5-20,69.3,56.9,32.0,58.8,53.4,49.4,99,87,64,30.07,29.99,14,4,14,0.00
2013-5-21,59.2,52.2,46.8,49.5,45.2,42.9,98,78,58,30.16,30.07,18,7,18,0.00
2013-5-22,54.9,48.8,41.2,44.7,38.1,33.3,95,68,47,30.15,30.07,25,11,25,0.00
2013-5-23,47.8,43.5,38.1,38.4,36.4,34.3,93,76,63,30.07,29.96,23,11,23,0.01
2013-5-24,64.6,53.3,39.0,42.4,37.5,31.4,91,57,35,30.23,29.95,18,4,18,0.00
2013-5-25,71.1,55.2,41.9,44.2,39.4,34.8,95,59,29,30.23,30.16,12,3,12,0.00
2013-5-26,68.2,54.4,38.8,50.2,44.0,33.9,88,70,38,30.16,29.80,13,3,13,0.00
2013-5-27,57.9,49.8,44.8,51.9,47.7,43.8,99,93,71,29.78,29.45,12,4,12,0.65
2013-5-28,55.9,51.2,32.0,50.8,47.7,44.0,99,82,69,29.77,29.53,8,2,8,0.06
2013-5-29,69.6,57.6,40.8,54.2,50.1,40.3,99,78,51,29.97,29.76,13,3,13,0.00
2013-5-30,77.2,62.3,51.3,54.1,50.8,48.3,95,68,42,30.13,29.97,14,4,14,0.00
2013-5-31,58.3,51.9,41.4,52.6,46.6,39.0,99,83,54,30.25,30.12,17,5,17,0.00
2013-6-1,60.1,53.1,38.3,47.9,43.9,38.0,99,72,56,30.35,30.23,16,6,16,0.00
2013-6-2,67.8,55.0,37.6,46.4,43.5,37.1,99,67,46,30.48,30.34,13,4,13,0.00
2013-6-3,75.2,59.7,47.8,57.5,53.3,44.6,97,80,52,30.52,30.47,6,1,6,0.02
2013-6-4,77.5,61.8,50.7,55.5,52.4,47.6,98,74,37,30.51,30.34,11,1,11,0.00
2013-6-5,77.5,64.3,47.5,55.4,51.7,45.6,94,65,45,30.34,30.17,11,2,11,0.00
2013-6-6,76.8,62.8,32.0,55.6,51.5,43.6,99,63,35,30.27,30.20,8,2,8,0.00
2013-6-7,80.8,62.2,32.0,53.6,50.4,43.4,78,34,33,30.32,30.29,9,2,9,0.00
2013-6-8,75.6,66.1,45.7,53.5,50.1,44.9,99,59,42,30.32,30.15,11,3,11,0.00
2013-6-9,75.0,62.5,43.9,57.3,51.0,34.6,97,68,24,30.15,30.00,9,3,9,0.00
2013-6-10,66.9,57.4,49.1,55.2,51.6,47.2,95,81,64,30.02,29.91,11,3,11,0.00
2013-6-11,59.2,53.8,46.2,57.4,51.5,45.4,99,92,79,29.92,29.70,14,4,14,0.00
2013-6-12,67.3,56.0,50.4,53.5,50.9,48.2,99,84,58,29.71,29.63,11,4,11,0.14
2013-6-13,62.1,53.9,46.8,49.2,46.7,42.8,99,78,52,29.86,29.60,17,6,17,0.00
2013-6-14,66.6,57.3,46.2,55.2,49.8,45.4,99,77,60,29.86,29.68,14,4,14,0.00
2013-6-15,52.9,48.9,38.3,49.9,46.7,30.1,99,93,51,30.90,29.98,11,6,11,0.04
2013-6-16,72.0,56.2,49.1,54.5,51.1,48.8,99,84,54,30.48,30.12,8,2,8,0.01
2013-6-17,68.9,62.1,52.5,55.3,52.7,46.1,95,73,44,30.55,30.03,7,1,7,0.00
2013-6-18,78.8,64.6,51.8,55.0,52.4,48.4,93,67,38,30.02,29.94,8,2,8,0.00
2013-6-19,69.8,59.1,50.5,51.1,48.6,46.0,98,71,46,30.05,29.99,12,4,12,0.00
2013-6-20,80.4,65.9,47.3,57.8,52.5,44.1,92,64,34,30.04,29.81,11,3,11,0.00
2013-6-21,72.5,58.5,32.0,56.6,52.4,47.6,99,79,43,29.80,29.60,9,4,9,0.06
2013-6-22,62.2,54.8,49.5,56.6,52.3,49.2,99,92,75,29.58,29.33,13,4,13,0.32
2013-6-23,55.2,52.1,49.5,52.9,49.9,45.9,99,92,85,29.98,29.44,24,11,24,0.13
2013-6-24,61.0,53.3,43.2,48.3,45.1,41.1,93,74,55,30.29,29.99,17,6,17,0.00
2013-6-25,63.0,55.7,41.5,53.5,49.1,40.2,99,80,59,30.42,30.28,10,2,10,12.78
2013-6-26,65.8,55.9,32.0,52.0,47.2,43.9,99,70,51,30.47,30.41,14,5,14,0.00
2013-6-27,56.1,54.0,47.8,55.9,52.7,45.0,99,96,85,30.44,30.18,11,3,11,0.21
2013-6-28,57.4,54.2,49.1,57.1,52.6,45.2,99,94,72,30.18,29.99,16,6,16,0.43
2013-6-29,63.9,55.4,47.1,56.9,51.9,46.9,99,89,62,30.17,30.11,11,3,11,0.00
2013-6-30,59.5,55.5,50.4,57.1,53.1,48.5,98,92,83,30.15,29.91,14,4,14,0.07
2013-7-1,66.0,54.3,47.1,49.2,46.8,42.9,99,77,49,29.94,29.88,17,5,17,0.11
2013-7-2,57.7,53.7,49.6,54.4,51.6,46.5,98,93,78,29.89,29.45,17,4,17,0.14
2013-7-3,69.1,58.3,52.5,55.3,52.9,50.4,98,83,57,29.84,29.47,12,4,12,0.02
2013-7-4,63.9,58.1,52.0,59.5,52.7,48.6,99,83,63,30.18,29.75,17,6,17,0.14
2013-7-5,77.5,64.1,52.9,58.4,53.5,48.7,93,70,48,30.38,30.18,9,3,9,0.00
2013-7-6,78.6,64.3,51.8,58.8,53.6,50.3,98,71,42,30.45,30.30,10,3,10,0.00
2013-7-7,80.1,67.6,56.7,59.9,56.5,49.5,99,71,36,30.60,30.45,8,3,8,0.01
2013-7-8,86.5,73.6,50.4,63.7,59.9,49.3,96,65,44,30.60,30.51,9,2,9,0.00
2013-7-9,81.0,70.8,52.2,64.0,60.7,51.6,99,72,51,30.51,30.38,11,4,11,0.00
2013-7-10,88.9,74.6,52.5,66.0,62.4,52.0,99,68,44,30.38,30.33,9,2,9,0.00
2013-7-11,86.2,71.2,59.0,66.2,62.6,57.6,96,76,50,30.36,30.29,8,2,8,0.00
2013-7-12,84.2,72.4,54.9,67.4,60.5,53.6,99,69,42,30.30,30.25,11,3,11,0.00
2013-7-13,72.1,63.0,51.6,60.4,56.3,49.4,98,80,61,30.33,30.28,9,3,9,0.00
2013-7-14,71.4,63.9,47.8,55.7,52.0,47.6,99,67,46,30.33,30.22,12,4,12,0.00
2013-7-15,74.7,63.1,45.1,57.6,54.7,44.3,99,75,50,30.24,30.22,13,4,13,0.00
2013-7-16,76.5,67.1,60.8,61.6,58.9,56.1,92,76,54,30.27,30.21,11,2,11,0.00
2013-7-17,77.5,67.8,54.9,60.9,56.7,53.2,96,70,45,30.37,30.27,12,2,12,0.00
2013-7-18,84.6,71.3,51.1,66.3,61.4,50.8,99,73,49,30.40,30.36,10,2,10,0.00
2013-7-19,95.0,78.0,49.5,64.6,56.7,46.0,99,54,23,30.39,30.30,12,2,12,0.00
2013-7-20,85.8,72.6,54.0,63.8,60.5,52.8,97,68,46,30.35,30.25,10,3,10,0.00
2013-7-21,84.7,69.4,55.9,60.9,57.7,54.0,98,69,44,30.26,30.10,11,4,11,0.00
2013-7-22,87.1,72.5,52.5,65.4,61.0,52.0,99,69,44,30.11,29.96,11,3,11,0.00
2013-7-23,71.6,65.9,60.4,66.6,63.4,59.9,99,92,80,29.96,29.87,14,2,14,0.21
2013-7-24,80.8,68.6,59.2,63.6,60.1,56.8,99,76,46,29.91,29.87,11,3,11,0.00
2013-7-25,80.1,67.8,58.5,65.3,61.0,58.2,99,80,52,29.90,29.80,12,3,12,0.19
2013-7-26,79.2,67.7,55.9,61.9,57.7,53.0,99,72,44,29.87,29.82,11,3,11,0.00
2013-7-27,79.0,67.9,56.7,62.8,58.9,56.2,99,75,52,29.82,29.64,8,2,8,0.00
2013-7-28,75.4,56.2,32.0,61.0,58.5,55.3,99,54,54,29.65,29.56,10,2,10,0.45
2013-7-29,77.0,65.2,55.8,64.6,59.1,55.5,99,82,55,29.79,29.62,11,3,11,0.07
2013-7-30,55.8,55.7,55.6,55.5,55.4,55.3,99,99,99,29.79,29.78,3,2,3,0.00
2013-7-31,72.1,58.0,49.3,57.1,53.7,49.0,99,87,53,29.89,29.71,4,1,4,0.48
2013-8-1,72.0,63.0,57.0,64.6,61.5,56.7,99,95,74,29.72,29.62,9,4,9,0.18
2013-8-2,74.1,65.1,57.7,61.0,58.1,55.4,99,80,56,29.63,29.54,16,6,16,0.01
2013-8-3,70.7,60.1,53.4,56.5,52.8,48.3,95,78,45,29.89,29.61,11,5,11,0.01
2013-8-4,77.7,67.0,53.6,57.6,54.5,51.7,97,67,44,29.92,29.86,8,3,8,0.08
2013-8-5,68.4,59.6,32.0,58.6,54.0,47.7,99,81,57,29.91,29.78,16,4,16,0.00
2013-8-6,67.5,59.0,49.1,54.4,50.8,46.0,97,75,59,29.98,29.91,8,2,8,0.00
2013-8-7,72.3,61.1,51.3,58.0,53.8,50.2,99,78,54,30.08,29.98,8,2,8,0.00
2013-8-8,76.1,55.1,45.3,58.7,51.2,44.5,99,89,43,30.07,29.91,8,2,8,0.00
2013-8-9,60.8,57.0,52.9,57.8,53.7,50.5,99,89,73,30.15,29.87,13,5,13,0.15
2013-8-10,66.6,59.5,52.2,53.9,51.8,49.0,98,77,56,30.16,30.01,8,2,8,0.05
2013-8-11,63.0,56.3,51.4,57.4,51.9,49.7,99,86,71,30.00,29.91,17,6,17,0.11
2013-8-12,64.8,56.1,50.0,55.5,52.8,49.7,99,89,67,30.07,29.88,17,6,17,0.33
2013-8-13,65.8,52.7,45.7,53.0,49.3,44.9,99,89,59,30.17,30.06,8,1,8,0.00
2013-8-14,69.3,61.6,53.1,61.5,57.9,51.4,99,88,65,30.16,29.96,12,3,12,0.04
2013-8-15,65.5,61.8,59.2,63.3,61.0,58.9,99,97,89,29.96,29.77,9,3,9,0.41
2013-8-16,70.0,60.1,49.5,59.6,55.2,49.2,99,84,63,29.90,29.77,11,3,11,0.04
2013-8-17,69.4,59.9,53.6,65.5,57.8,52.8,99,93,75,29.85,29.45,14,5,14,0.15
2013-8-18,63.1,54.0,50.2,55.2,50.8,48.7,99,89,64,29.84,29.53,14,4,14,0.04
2013-8-19,68.0,55.8,50.5,55.4,51.9,49.0,99,88,57,30.21,29.84,11,3,11,0.01
2013-8-20,67.6,60.0,49.1,57.4,55.0,48.8,99,84,67,30.26,30.15,9,3,9,0.01
2013-8-21,69.1,60.0,57.0,61.0,58.7,56.7,99,96,74,30.14,30.05,6,1,6,0.11
2013-8-22,77.5,65.3,56.1,62.6,59.2,55.8,99,82,55,30.11,29.99,8,1,8,0.01
2013-8-23,69.3,62.2,56.1,62.8,58.3,52.7,99,87,74,29.99,29.89,12,2,12,0.06
2013-8-24,69.8,58.8,44.1,56.2,51.8,43.5,99,79,53,29.99,29.92,10,3,10,0.04
2013-8-25,78.6,59.4,37.9,59.6,51.4,37.7,99,78,43,30.19,30.00,8,2,8,0.00
2013-8-26,74.7,59.0,46.2,62.1,55.4,45.4,99,88,65,30.19,30.12,7,1,7,0.00
2013-8-27,69.4,57.7,46.2,59.8,54.9,45.4,99,91,71,30.22,30.09,8,2,8,0.00
2013-8-28,66.2,52.3,40.6,55.5,47.0,40.4,99,84,52,30.23,30.11,11,2,11,0.01
2013-8-29,63.1,58.7,52.9,58.5,56.5,51.5,99,92,77,30.11,30.03,10,3,10,0.04
2013-8-30,63.9,57.6,48.9,61.0,55.3,44.1,99,92,80,30.13,29.90,20,4,20,0.07
2013-8-31,62.4,54.6,48.7,50.8,48.0,41.4,98,80,48,30.35,30.13,17,6,17,0.07
2013-9-1,57.4,54.9,51.6,54.9,52.3,49.7,99,91,82,30.34,30.20,17,7,17,0.04
2013-9-2,71.8,62.7,56.8,62.8,59.6,54.8,99,90,71,30.31,30.18,24,7,24,0.00
2013-9-3,75.4,64.5,56.1,60.4,57.8,53.9,98,81,49,30.29,30.21,12,2,12,0.00
2013-9-4,74.7,62.7,54.3,55.9,53.6,51.8,99,74,51,30.19,29.92,14,4,14,0.00
2013-9-5,66.7,57.3,41.2,53.5,46.9,39.9,99,70,48,29.93,29.89,14,3,14,0.00
2013-9-6,57.4,47.9,35.2,50.3,46.1,34.3,99,94,73,29.91,29.87,11,3,11,0.39
2013-9-7,57.2,48.9,32.0,52.7,48.0,43.2,99,86,78,29.87,29.73,21,4,21,0.43
2013-9-8,60.3,51.8,44.2,54.2,49.4,43.7,99,92,75,29.96,29.86,12,3,12,0.09
2013-9-9,64.2,51.2,41.9,54.4,48.0,41.6,99,89,63,30.18,29.95,12,2,12,0.09
2013-9-10,62.1,50.5,42.6,52.2,47.9,42.3,99,91,69,30.27,30.17,21,4,21,0.01
2013-9-11,59.0,55.6,52.0,58.3,54.6,50.3,99,97,92,30.26,30.09,7,2,7,0.13
2013-9-12,67.5,58.6,32.0,60.0,56.9,51.7,99,91,74,30.11,29.91,14,4,14,0.20
2013-9-13,59.0,51.1,43.2,49.9,46.0,42.1,99,84,63,30.09,30.02,8,2,8,0.00
2013-9-14,63.0,49.8,35.8,48.4,43.1,34.5,99,80,53,30.09,29.96,13,3,13,0.00
2013-9-15,57.6,49.8,40.6,56.7,47.0,38.3,99,90,64,29.94,29.30,24,8,24,0.79
2013-9-16,53.1,47.9,41.7,47.1,43.9,39.2,97,86,73,29.43,29.34,23,10,23,0.89
2013-9-17,51.6,48.5,42.1,46.6,44.5,41.0,97,86,81,29.43,29.34,19,6,19,0.02
2013-9-18,56.5,49.6,42.8,48.2,45.0,42.0,98,84,67,29.77,29.43,22,6,22,0.13
2013-9-19,55.8,50.7,45.3,52.5,49.2,43.4,97,94,87,29.81,29.51,18,6,18,0.26
2013-9-20,66.0,55.6,47.8,50.8,47.5,43.5,98,76,49,30.07,29.82,11,4,11,0.00
2013-9-21,63.0,58.2,50.5,58.4,54.6,47.6,93,88,79,30.17,30.04,10,3,10,0.00
2013-9-22,68.5,61.8,51.6,57.4,55.1,49.9,94,79,58,30.32,30.17,10,2,10,0.00
2013-9-23,65.1,59.7,48.9,59.2,56.2,47.8,97,88,80,30.30,30.14,8,2,8,0.00
2013-9-24,62.6,57.9,50.5,58.6,55.7,50.0,99,92,83,30.06,29.94,6,1,6,0.00
2013-9-25,62.4,56.2,32.0,56.0,52.2,45.0,97,86,75,30.01,29.88,7,2,7,0.00
2013-9-26,57.7,52.0,50.0,49.7,45.8,44.1,93,80,68,30.07,30.00,6,1,6,0.01
2013-9-27,68.4,56.4,52.5,56.1,52.4,48.6,95,87,62,30.01,29.94,9,3,9,0.01
2013-9-28,74.7,62.1,54.3,59.5,55.7,52.9,99,81,49,30.48,30.27,8,3,8,0.00
2013-9-29,74.1,59.3,51.4,55.6,52.9,50.2,99,82,52,30.27,30.08,11,4,11,0.00
2013-9-30,64.8,48.9,35.2,48.7,41.7,34.3,99,79,49,30.12,30.05,8,2,8,0.00
2013-10-1,57.4,50.5,43.7,50.1,47.8,43.2,99,91,73,30.10,29.91,11,3,11,0.69
2013-10-2,58.3,53.9,47.1,58.0,52.8,46.9,99,96,80,30.07,29.90,21,4,21,2.37
2013-10-3,66.2,59.9,57.9,64.1,59.3,57.7,99,98,88,29.91,29.72,11,3,11,0.48
2013-10-4,58.8,56.6,53.8,58.5,55.9,53.0,99,97,93,30.05,29.73,11,4,11,0.05
2013-10-5,71.1,58.0,51.1,54.8,52.7,48.9,99,84,53,30.31,30.05,10,3,10,0.02
2013-10-6,68.4,59.8,54.9,60.0,57.7,52.7,99,93,73,30.31,30.27,13,3,13,0.00
2013-10-7,65.8,61.0,58.8,60.3,58.4,56.8,99,91,79,30.30,30.21,13,5,13,0.06
2013-10-8,57.4,53.0,50.0,56.3,51.3,48.0,98,94,87,30.39,30.23,14,5,14,0.05
2013-10-9,52.0,46.7,39.0,49.1,41.5,36.1,99,83,64,30.38,30.21,26,10,26,0.12
2013-10-10,57.6,46.0,33.6,44.5,36.5,31.9,97,72,46,30.58,29.65,16,3,16,0.00
2013-10-11,53.6,48.2,41.7,47.0,43.9,39.3,96,85,72,30.64,29.66,12,2,12,0.08
2013-10-12,54.1,48.6,32.0,48.5,45.7,43.0,94,73,77,30.61,30.39,6,2,10,0.00
2013-10-13,59.0,48.9,32.0,50.4,46.3,42.2,99,89,68,30.41,30.17,11,2,11,0.00
2013-10-14,63.1,49.0,42.8,49.0,44.1,40.8,99,85,45,30.16,30.09,7,1,7,0.00
2013-10-15,63.1,48.3,41.9,50.9,45.7,41.4,99,91,62,30.15,30.06,7,1,7,0.00
2013-10-16,51.3,46.8,38.7,46.9,45.1,38.4,99,94,83,30.13,29.75,13,2,13,0.32
2013-10-17,61.5,48.0,32.0,52.0,47.3,39.5,99,73,64,30.14,29.83,11,2,11,0.01
2013-10-18,53.8,49.6,38.7,52.2,48.5,38.2,99,96,89,30.14,29.81,16,2,16,0.19
2013-10-19,56.7,54.1,52.2,56.2,53.4,50.8,99,97,95,29.80,29.66,11,4,11,0.48
2013-10-20,54.9,52.8,50.2,53.6,51.9,49.4,99,97,93,29.65,29.56,6,3,6,0.43
2013-10-21,53.1,45.6,32.0,51.4,51.4,51.4,94,60,94,29.61,29.50,2,1,2,0.43
2013-10-22,65.1,56.7,55.4,57.9,54.7,52.9,99,93,75,29.45,29.27,9,3,9,0.26
2013-10-23,56.1,49.3,42.1,54.7,46.4,39.4,98,90,65,29.82,29.20,19,8,19,0.50
2013-10-24,62.4,48.6,32.0,48.2,44.6,42.4,98,85,51,30.06,29.82,8,2,8,0.05
2013-10-25,59.4,53.7,45.7,55.4,51.1,43.5,95,91,82,29.96,29.52,13,4,13,0.13
2013-10-26,54.5,50.4,46.2,52.1,47.7,44.6,97,91,72,29.63,29.36,14,3,14,0.15
2013-10-27,54.1,49.4,46.9,48.3,45.7,44.0,93,87,75,29.37,28.88,20,6,20,0.26
2013-10-28,48.2,46.6,44.4,46.7,44.8,42.5,95,93,89,29.14,28.88,17,5,17,0.41
2013-10-29,51.4,45.6,40.1,46.1,41.7,38.5,95,86,74,29.85,29.45,9,4,9,0.08
2013-10-30,53.1,49.4,41.5,51.7,46.9,41.0,98,91,80,29.86,29.59,13,6,13,0.24
2013-10-31,54.3,46.4,42.4,45.5,42.9,40.0,95,88,71,29.81,29.59,14,5,14,0.09
2013-11-1,52.2,42.0,36.9,42.6,39.0,34.4,95,89,65,29.62,29.53,11,2,11,0.00
2013-11-2,47.5,41.7,33.6,46.1,40.0,31.7,99,94,89,29.53,28.83,18,5,18,0.45
2013-11-3,50.0,40.5,31.8,43.2,36.6,30.0,94,86,71,29.31,29.13,22,4,22,0.27
2013-11-4,50.9,38.0,28.2,47.6,34.2,25.9,99,87,63,29.34,29.19,8,1,8,0.01
2013-11-5,45.0,38.4,31.1,42.8,36.6,29.6,98,93,85,29.29,29.14,13,2,13,0.52
2013-11-6,45.3,42.8,37.0,41.9,40.4,34.9,97,91,86,29.39,29.24,10,3,10,0.05
2013-11-7,49.5,44.2,37.4,41.0,39.2,35.8,95,82,69,29.49,29.38,17,6,17,0.04
2013-11-8,44.6,41.9,39.4,40.6,39.4,37.5,95,91,85,29.48,29.45,12,4,12,0.00
2013-11-9,44.6,38.5,30.9,40.4,35.8,28.9,97,90,83,29.55,29.46,8,3,8,0.26
2013-11-10,56.3,38.4,29.1,45.4,34.9,27.6,99,88,55,30.03,29.67,12,2,12,0.00
2013-11-11,56.1,48.0,42.8,52.9,45.5,41.2,98,91,70,30.03,29.75,14,5,14,0.22
2013-11-12,49.1,44.8,42.8,45.1,40.7,38.0,92,85,71,30.36,30.03,17,6,17,0.11
2013-11-13,47.7,45.2,40.8,43.8,41.7,39.0,93,88,76,30.36,29.85,18,7,18,0.26
2013-11-14,46.8,42.2,38.7,42.8,36.6,34.4,92,80,65,30.45,29.86,28,6,28,0.06
2013-11-15,48.2,45.6,39.6,46.4,43.2,36.6,96,91,86,30.43,30.37,6,2,6,0.00
2013-11-16,49.6,48.6,47.8,45.3,44.5,44.2,90,86,85,30.36,30.29,11,4,11,0.00
2013-11-17,45.3,40.6,30.9,44.5,39.6,29.4,98,96,92,30.31,29.89,6,1,6,0.11
2013-11-18,43.9,39.6,33.1,42.8,37.6,30.1,99,93,80,29.78,29.74,11,2,11,0.13
2013-11-20,44.4,39.5,36.5,42.2,31.6,26.8,96,73,67,29.85,29.53,24,8,24,0.51
2013-11-21,37.8,32.7,27.7,31.5,27.3,23.5,88,80,73,30.17,29.88,4,0,4,0.00
2013-11-22,50.4,31.4,22.1,41.2,25.3,18.8,93,79,52,30.33,30.17,3,0,3,0.00
2013-11-23,52.3,36.9,28.8,42.1,32.9,25.5,94,86,65,30.47,30.31,4,0,4,0.00
2013-11-24,44.4,38.5,34.9,40.8,35.6,31.4,96,89,83,30.72,30.47,3,0,3,0.00
2013-11-25,41.7,38.1,30.6,39.6,35.8,28.0,95,91,87,30.77,30.70,2,0,2,0.00
2013-11-26,48.9,46.0,40.3,48.4,45.1,38.7,98,97,93,30.74,30.61,9,4,9,0.04
2013-11-27,50.7,48.8,48.2,48.5,47.4,46.5,97,95,88,30.61,30.56,16,5,16,0.00
2013-11-28,51.3,43.7,40.8,47.6,40.6,38.3,97,89,63,30.65,30.44,13,2,13,0.01
2013-11-29,46.9,43.0,41.4,45.0,38.4,34.8,96,84,72,30.44,30.21,28,10,28,0.20
2013-11-30,47.1,41.1,33.1,44.7,38.3,30.2,95,90,84,30.46,30.37,8,2,8,0.00
2013-12-1,48.6,46.0,43.9,46.6,43.9,41.6,97,92,85,30.62,30.45,7,2,7,0.01
2013-12-2,45.9,43.3,41.9,44.0,39.9,38.3,95,88,85,30.61,30.41,10,3,10,0.05
2013-12-3,48.6,45.0,38.3,45.4,42.9,36.2,95,92,85,30.40,30.20,11,3,11,0.15
2013-12-4,45.7,40.9,35.4,39.1,36.8,32.4,94,85,72,30.37,30.22,24,7,24,0.04
2013-12-5,46.9,39.4,32.9,44.2,32.8,23.9,93,77,60,30.22,29.68,42,16,42,0.43
2013-12-6,38.7,36.2,32.0,34.9,29.4,24.6,92,68,61,30.35,30.22,12,2,12,0.02
2013-12-7,46.2,39.7,32.0,44.5,39.8,34.9,96,55,90,30.19,30.06,14,4,14,0.30
2013-12-8,51.6,50.2,45.9,49.8,48.2,43.6,95,93,90,30.07,29.97,18,9,19,0.19
2013-12-9,55.4,47.1,32.0,48.9,46.2,41.0,91,65,72,30.25,30.07,12,3,12,0.19
2013-12-10,51.4,50.6,47.5,49.3,46.0,41.0,93,84,76,30.27,30.20,16,6,16,0.01
2013-12-11,51.3,45.8,42.1,49.3,43.3,39.7,95,91,81,30.30,30.06,14,7,14,0.00
2013-12-12,52.0,46.7,45.9,50.6,42.0,40.4,97,83,81,30.05,29.97,13,9,13,0.20
2013-12-13,52.0,47.3,32.0,50.3,44.6,36.8,94,87,83,29.95,29.78,14,5,14,0.30
2013-12-14,50.4,41.3,32.0,48.4,42.1,36.9,94,54,90,29.80,29.53,24,5,24,0.41
2013-12-15,55.9,41.8,32.0,49.9,43.9,41.3,99,61,80,30.16,29.51,22,4,22,0.04
2013-12-16,48.2,40.6,36.9,43.9,35.9,32.5,88,83,77,29.97,29.50,19,6,19,0.13
2013-12-17,44.4,40.7,34.9,39.2,35.6,31.2,91,82,74,30.05,29.67,13,4,13,0.01
2013-12-18,50.0,47.7,42.8,47.7,44.6,36.8,95,89,77,29.67,28.74,23,8,23,0.40
2013-12-19,43.5,37.3,35.4,36.8,31.7,29.4,86,80,70,29.50,28.88,21,9,21,0.04
2013-12-20,49.5,43.8,32.0,47.2,41.0,33.3,92,79,82,29.72,29.38,28,10,28,0.45
2013-12-21,49.5,42.2,32.0,47.2,39.5,35.3,92,73,79,29.48,29.25,17,7,17,0.14
2013-12-22,40.1,37.2,32.0,36.0,32.3,29.8,88,81,78,29.52,29.29,22,8,22,0.07
2013-12-23,49.8,42.0,32.0,47.1,38.9,29.8,96,58,81,29.45,28.27,22,6,22,0.31
2013-12-24,48.0,38.9,36.3,43.6,32.6,26.9,89,78,64,28.54,28.25,31,13,31,0.14
2013-12-25,45.3,39.6,36.7,34.6,33.2,30.7,87,78,64,29.06,28.53,16,6,16,0.00
2013-12-26,42.8,37.9,33.1,37.7,34.8,29.9,95,88,80,29.26,28.45,28,6,28,0.11
2013-12-27,45.7,42.1,37.2,41.1,38.8,34.0,94,88,80,28.84,28.15,25,12,25,0.66
2013-12-28,41.4,40.1,38.1,37.8,36.6,34.9,91,87,83,29.49,28.83,17,7,17,0.18
2013-12-29,47.5,41.9,39.2,45.0,38.4,34.4,92,87,75,29.76,29.41,17,6,17,0.40
2013-12-30,49.6,40.6,36.7,46.9,38.6,33.5,95,92,85,29.57,29.25,16,4,16,1.16
2013-12-31,45.9,41.2,39.4,41.6,37.9,35.1,93,88,72,29.52,29.16,18,5,18,0.26
2014-1-1,46.4,42.0,38.5,44.8,39.8,36.0,94,92,87,29.24,28.61,19,6,19,0.45
2014-1-2,44.1,42.2,39.9,41.4,39.4,37.3,94,90,86,29.10,28.77,21,6,21,0.17